W8UFO-13 Weather Reports


Display with metric or nautical units.
time (UTC)temp
F
wind
direction
speed
MPH
gust
MPH
rain 1hr
in
rain 24hr
in
rain mn
in
humidity
%
barometer
mb
20260505152917 72 270 1.0 1.0 0.00 0.00 0.00 59 1016.9
20260505152417 72 270 2.0 3.0 0.00 0.00 0.00 59 1017.0
20260505151917 71 248 2.0 4.0 0.00 0.00 0.00 58 1016.8
20260505151417 71 0.0 1.0 0.00 0.00 0.00 60 1016.7
20260505150916 70 0 1.0 2.0 0.00 0.00 0.00 59 1016.6
20260505150416 71 0.0 1.0 0.00 0.00 0.00 59 1016.8
20260505140416 68 293 1.0 3.0 0.00 0.00 0.00 61 1017.0
20260505124917 62 0.0 1.0 0.00 0.00 0.00 71 1016.6
20260505124417 61 0.0 0.0 0.00 0.00 0.00 75 1016.5
20260505123916 60 0.0 0.0 0.00 0.00 0.00 76 1016.5
20260505123417 59 0.0 1.0 0.00 0.00 0.00 74 1016.4
20260505122916 58 0.0 0.0 0.00 0.00 0.00 79 1016.3
20260505122417 58 0.0 0.0 0.00 0.00 0.00 80 1016.2
20260505121917 57 0.0 0.0 0.00 0.00 0.00 82 1016.1
20260505121416 57 0.0 0.0 0.00 0.00 0.00 85 1016.2
20260505120916 56 0.0 0.0 0.00 0.00 0.00 86 1016.3
20260505120416 55 0.0 0.0 0.00 0.00 0.00 87 1016.2
20260505115916 54 0.0 0.0 0.00 0.00 0.00 86 1016.2
20260505115417 54 0.0 0.0 0.00 0.00 0.00 86 1016.1
20260505114917 53 0.0 0.0 0.00 0.00 0.00 86 1016.1
20260505114416 53 0.0 0.0 0.00 0.00 0.00 85 1016.1
20260505113916 53 0.0 0.0 0.00 0.00 0.00 85 1016.0
20260505113417 53 0.0 0.0 0.00 0.00 0.00 85 1015.9
20260505112916 53 0.0 0.0 0.00 0.00 0.00 85 1015.7
20260505112416 53 0.0 0.0 0.00 0.00 0.00 85 1016.0
20260505111916 53 0.0 0.0 0.00 0.00 0.00 85 1015.8
20260505111416 53 0.0 0.0 0.00 0.00 0.00 85 1015.6
20260505110916 53 0.0 0.0 0.00 0.00 0.00 85 1015.6
20260505110416 53 0.0 0.0 0.00 0.00 0.00 85 1015.4
20260505101916 54 0.0 0.0 0.00 0.00 0.00 82 1015.4
20260505101417 54 0.0 0.0 0.00 0.00 0.00 82 1015.5
20260505100916 54 0.0 0.0 0.00 0.00 0.00 81 1015.6
20260505100416 54 0.0 0.0 0.00 0.00 0.00 81 1015.5
20260505095916 54 0.0 0.0 0.00 0.00 0.00 81 1015.6
20260505095416 54 0.0 0.0 0.00 0.00 0.00 81 1015.7
20260505094916 55 0.0 0.0 0.00 0.00 0.00 80 1015.6
20260505094416 55 0.0 0.0 0.00 0.00 0.00 80 1015.6
20260505093916 55 0.0 0.0 0.00 0.00 0.00 80 1015.8
20260505093416 55 0.0 0.0 0.00 0.00 0.00 79 1015.9
20260505092916 56 0.0 0.0 0.00 0.00 0.00 78 1015.8
20260505092416 56 0.0 0.0 0.00 0.00 0.00 78 1016.0
20260505091916 56 0.0 0.0 0.00 0.00 0.00 77 1015.8
20260505091416 57 0.0 0.0 0.00 0.00 0.00 76 1015.9
20260505090916 57 0.0 0.0 0.00 0.00 0.00 76 1016.0
20260505090416 57 0.0 0.0 0.00 0.00 0.00 75 1015.9
20260505085916 58 0.0 0.0 0.00 0.00 0.00 74 1015.8
20260505085416 58 0.0 0.0 0.00 0.00 0.00 72 1015.7
20260505084916 59 0.0 0.0 0.00 0.00 0.00 72 1015.7
20260505084416 59 0.0 0.0 0.00 0.00 0.00 70 1015.7
20260505083916 60 0.0 0.0 0.00 0.00 0.00 69 1015.7
20260505083416 60 0.0 1.0 0.00 0.00 0.00 69 1015.5
20260505082916 60 0.0 0.0 0.00 0.00 0.00 69 1015.4
20260505082416 60 0.0 0.0 0.00 0.00 0.00 68 1015.4
20260505081916 60 0.0 1.0 0.00 0.00 0.00 69 1015.3
20260505081416 61 0.0 0.0 0.00 0.00 0.00 68 1015.2
20260505080916 61 0.0 1.0 0.00 0.00 0.00 68 1015.2
20260505080416 61 0.0 0.0 0.00 0.00 0.00 69 1015.2
20260505075916 61 0.0 1.0 0.00 0.00 0.00 68 1015.2
20260505075416 61 0.0 1.0 0.00 0.00 0.00 68 1015.2
20260505074916 61 315 1.0 1.0 0.00 0.00 0.00 68 1015.1
20260505074416 61 0.0 0.0 0.00 0.00 0.00 68 1015.2
20260505073916 61 0.0 1.0 0.00 0.00 0.00 68 1015.3
20260505073416 61 0.0 1.0 0.00 0.00 0.00 68 1015.3
20260505072916 61 0.0 1.0 0.00 0.00 0.00 68 1015.3
20260505072416 62 0.0 1.0 0.00 0.00 0.00 67 1015.3
20260505071916 62 338 1.0 2.0 0.00 0.00 0.00 67 1015.4
20260505071416 62 293 1.0 2.0 0.00 0.00 0.00 66 1015.5
20260505070916 62 0.0 1.0 0.00 0.00 0.00 66 1015.4
20260505070416 62 270 1.0 2.0 0.00 0.00 0.00 66 1015.4
20260505065916 62 0.0 1.0 0.00 0.00 0.00 66 1015.4
20260505065417 62 0.0 1.0 0.00 0.00 0.00 66 1015.4
20260505064916 62 293 1.0 3.0 0.00 0.00 0.00 66 1015.5
20260505064416 63 0.0 0.0 0.00 0.00 0.00 66 1015.4
20260505063916 63 0.0 0.0 0.00 0.00 0.00 66 1015.4
20260505063416 63 0.0 1.0 0.00 0.00 0.00 66 1015.3
20260505062916 63 0.0 1.0 0.00 0.00 0.00 65 1015.3
20260505062416 63 248 1.0 3.0 0.00 0.00 0.00 66 1015.3
20260505061916 63 135 1.0 2.0 0.00 0.00 0.00 65 1015.4
20260505061416 63 0.0 1.0 0.00 0.00 0.00 65 1015.3
20260505060916 63 0.0 2.0 0.00 0.00 0.00 65 1015.2
20260505060416 63 225 2.0 3.0 0.00 0.00 0.00 65 1015.2
20260505055916 63 0.0 1.0 0.00 0.00 0.00 66 1015.1
20260505055416 63 0.0 1.0 0.00 0.00 0.00 66 1015.1
20260505054916 64 248 1.0 2.0 0.00 0.00 0.00 66 1015.1
20260505054416 63 0.0 2.0 0.00 0.00 0.00 66 1015.1
20260505053916 63 0.0 1.0 0.00 0.00 0.00 66 1015.0
20260505053416 64 0.0 1.0 0.00 0.00 0.00 66 1015.0
20260505052916 64 0.0 1.0 0.00 0.00 0.00 66 1015.1
20260505052416 64 0.0 1.0 0.00 0.00 0.00 66 1015.1
20260505051916 64 0.0 1.0 0.00 0.00 0.00 66 1015.0
20260505051416 64 0.0 0.0 0.00 0.00 0.00 65 1015.0
20260505050916 64 293 1.0 2.0 0.00 0.00 0.00 65 1014.9
20260505050416 64 0.0 1.0 0.00 0.00 0.00 65 1014.8
20260505041416 65 0.0 1.0 0.00 0.00 0.00 64 1014.8
20260505040916 65 203 1.0 2.0 0.00 0.00 0.00 65 1014.8
20260505040416 65 248 1.0 2.0 0.00 0.00 0.00 64 1014.9
20260505035917 65 0.0 1.0 0.00 0.00 0.00 65 1014.8
20260505035417 65 0.0 2.0 0.00 0.00 0.00 65 1015.0
20260505034917 64 248 2.0 4.0 0.00 0.00 0.00 65 1014.9
20260505034417 64 0.0 1.0 0.00 0.00 0.00 65 1014.8
20260505033917 65 0.0 0.0 0.00 0.00 0.00 65 1014.8
20260505033417 65 248 1.0 2.0 0.00 0.00 0.00 64 1014.8
20260505032917 64 0.0 1.0 0.00 0.00 0.00 65 1014.8
20260505032417 64 0.0 1.0 0.00 0.00 0.00 66 1014.8
20260505031917 64 0.0 0.0 0.00 0.00 0.00 66 1014.9
20260505031417 64 0.0 0.0 0.00 0.00 0.00 67 1014.9
20260505030917 64 0.0 0.0 0.00 0.00 0.00 66 1014.7
20260505030417 64 0.0 0.0 0.00 0.00 0.00 66 1014.7
20260505025917 65 0.0 0.0 0.00 0.00 0.00 66 1014.9
20260505025417 65 0.0 0.0 0.00 0.00 0.00 64 1014.9
20260505024917 65 0.0 1.0 0.00 0.00 0.00 65 1015.0
20260505024417 65 0.0 0.0 0.00 0.00 0.00 64 1014.9
20260505023917 66 0.0 0.0 0.00 0.00 0.00 64 1014.9
20260505023417 66 0.0 0.0 0.00 0.00 0.00 63 1014.9
20260505022917 67 0.0 1.0 0.00 0.00 0.00 62 1014.9
20260505022417 67 0.0 0.0 0.00 0.00 0.00 61 1015.0
20260505021917 68 0.0 0.0 0.00 0.00 0.00 60 1014.9
20260505021417 68 0.0 1.0 0.00 0.00 0.00 59 1014.9
20260505020917 68 0.0 1.0 0.00 0.00 0.00 59 1015.0
20260505020417 69 0.0 2.0 0.00 0.00 0.00 58 1014.8
20260505015917 69 225 2.0 5.0 0.00 0.00 0.00 58 1014.7
20260505015417 69 180 1.0 2.0 0.00 0.00 0.00 58 1014.7
20260505014917 69 225 1.0 2.0 0.00 0.00 0.00 58 1014.8
20260505014417 69 203 1.0 3.0 0.00 0.00 0.00 58 1014.8
20260505013917 69 0.0 1.0 0.00 0.00 0.00 59 1014.7
20260505013417 69 248 1.0 3.0 0.00 0.00 0.00 59 1014.6
20260505012917 70 225 1.0 3.0 0.00 0.00 0.00 59 1014.6
20260505012417 70 248 1.0 2.0 0.00 0.00 0.00 59 1014.6
20260505011917 70 225 2.0 3.0 0.00 0.00 0.00 59 1014.6
20260505011417 70 248 1.0 2.0 0.00 0.00 0.00 59 1014.5
20260505010917 70 248 1.0 2.0 0.00 0.00 0.00 58 1014.2
20260505010417 70 0.0 1.0 0.00 0.00 0.00 58 1014.1
20260505005917 71 248 2.0 5.0 0.00 0.00 0.00 58 1014.1
20260505005417 71 270 1.0 4.0 0.00 0.00 0.00 57 1014.0
20260505004917 71 225 1.0 2.0 0.00 0.00 0.00 57 1014.0
20260505004417 71 270 1.0 3.0 0.00 0.00 0.00 57 1014.0
20260505003917 71 0.0 1.0 0.00 0.00 0.00 56 1013.8
20260505003417 72 68 1.0 5.0 0.00 0.00 0.00 56 1013.9
20260505002917 72 248 1.0 4.0 0.00 0.00 0.00 55 1013.8
20260505002417 72 293 2.0 5.0 0.00 0.00 0.00 55 1013.7
20260505001917 72 225 1.0 2.0 0.00 0.00 0.00 54 1013.7
20260505001417 72 225 1.0 1.0 0.00 0.00 0.00 53 1013.7
20260505000917 73 158 1.0 3.0 0.00 0.00 0.00 52 1013.7
20260505000417 73 180 1.0 4.0 0.00 0.00 0.00 52 1013.6
20260504235917 73 203 2.0 4.0 0.00 0.00 0.00 51 1013.7
20260504235417 73 203 1.0 2.0 0.00 0.00 0.00 51 1013.7
20260504234917 74 0.0 1.0 0.00 0.00 0.00 51 1013.7
20260504234417 74 225 1.0 2.0 0.00 0.00 0.00 52 1013.7
20260504233918 74 248 2.0 3.0 0.00 0.00 0.00 52 1013.5
20260504233417 74 293 1.0 1.0 0.00 0.00 0.00 52 1013.5
20260504232918 74 0.0 1.0 0.00 0.00 0.00 52 1013.5
20260504232417 74 203 1.0 2.0 0.00 0.00 0.00 52 1013.6
20260504231917 74 0.0 1.0 0.00 0.00 0.00 52 1013.6
20260504231417 75 248 2.0 3.0 0.00 0.00 0.00 52 1013.6
20260504230917 75 315 1.0 3.0 0.00 0.00 0.00 51 1013.5
20260504230417 74 248 1.0 3.0 0.00 0.00 0.00 52 1013.5
20260504225917 75 248 1.0 2.0 0.00 0.00 0.00 51 1013.4
20260504225417 75 0.0 1.0 0.00 0.00 0.00 50 1013.6
20260504224917 75 225 2.0 5.0 0.00 0.00 0.00 50 1013.6
20260504224417 75 248 2.0 5.0 0.00 0.00 0.00 49 1013.7
20260504223917 75 225 2.0 3.0 0.00 0.00 0.00 48 1013.7
20260504223417 76 225 1.0 2.0 0.00 0.00 0.00 49 1013.7
20260504222917 76 225 1.0 2.0 0.00 0.00 0.00 48 1013.7
20260504222417 76 180 3.0 7.0 0.00 0.00 0.00 47 1013.7
20260504221917 76 225 3.0 4.0 0.00 0.00 0.00 46 1013.8
20260504221417 76 0.0 2.0 0.00 0.00 0.00 47 1013.8
20260504220917 77 225 4.0 5.0 0.00 0.00 0.00 45 1013.9
20260504220417 78 293 2.0 4.0 0.00 0.00 0.00 46 1014.0
20260504215917 78 23 2.0 4.0 0.00 0.00 0.00 44 1014.1
20260504215417 79 315 2.0 5.0 0.00 0.00 0.00 44 1013.9
20260504214917 78 203 1.0 2.0 0.00 0.00 0.00 45 1014.0
20260504214417 78 203 2.0 3.0 0.00 0.00 0.00 44 1014.1
20260504213917 79 270 5.0 7.0 0.00 0.00 0.00 44 1013.9
20260504213417 79 248 1.0 2.0 0.00 0.00 0.00 46 1014.0
20260504212917 79 0 3.0 5.0 0.00 0.00 0.00 44 1014.0
20260504212417 79 248 3.0 7.0 0.00 0.00 0.00 44 1014.1
20260504211917 79 90 2.0 4.0 0.00 0.00 0.00 48 1014.1
20260504211417 79 225 2.0 5.0 0.00 0.00 0.00 46 1014.2
20260504210917 79 270 1.0 3.0 0.00 0.00 0.00 47 1014.3
20260504210417 79 270 2.0 4.0 0.00 0.00 0.00 46 1014.5
20260504205917 79 180 4.0 7.0 0.00 0.00 0.00 47 1014.4
20260504205417 79 225 1.0 3.0 0.00 0.00 0.00 50 1014.4
20260504204917 79 248 2.0 4.0 0.00 0.00 0.00 49 1014.5
20260504204416 79 203 2.0 3.0 0.00 0.00 0.00 48 1014.6
20260504203918 79 203 2.0 3.0 0.00 0.00 0.00 50 1014.5
20260504203417 79 225 2.0 5.0 0.00 0.00 0.00 49 1014.7
20260504202917 79 225 4.0 6.0 0.00 0.00 0.00 48 1014.6
20260504202417 79 270 2.0 3.0 0.00 0.00 0.00 50 1014.6
20260504201917 79 270 3.0 4.0 0.00 0.00 0.00 49 1014.8
20260504201417 78 248 3.0 6.0 0.00 0.00 0.00 48 1014.8
20260504200917 78 248 2.0 3.0 0.00 0.00 0.00 49 1014.9
20260504200417 79 270 2.0 6.0 0.00 0.00 0.00 49 1014.9
20260504195917 78 338 2.0 6.0 0.00 0.00 0.00 51 1015.0
20260504195417 78 135 3.0 7.0 0.00 0.00 0.00 49 1015.2
20260504194917 78 225 2.0 4.0 0.00 0.00 0.00 49 1015.3
20260504194416 78 45 1.0 4.0 0.00 0.00 0.00 49 1015.4
20260504193917 78 315 2.0 3.0 0.00 0.00 0.00 50 1015.5
20260504193417 78 293 2.0 3.0 0.00 0.00 0.00 50 1015.5
20260504192916 78 203 2.0 5.0 0.00 0.00 0.00 49 1015.5
20260504192416 78 270 1.0 4.0 0.00 0.00 0.00 52 1015.6
20260504191917 77 270 1.0 3.0 0.00 0.00 0.00 51 1015.7
20260504191417 77 293 3.0 6.0 0.00 0.00 0.00 52 1015.8
20260504190917 77 248 3.0 7.0 0.00 0.00 0.00 50 1016.0
20260504190416 77 248 2.0 3.0 0.00 0.00 0.00 51 1016.0
20260504185917 77 248 3.0 5.0 0.00 0.00 0.00 50 1016.1
20260504185416 77 248 2.0 4.0 0.00 0.00 0.00 52 1016.1
20260504184917 77 90 1.0 2.0 0.00 0.00 0.00 51 1016.2
20260504184417 77 0.0 1.0 0.00 0.00 0.00 52 1016.3
20260504183916 77 23 1.0 3.0 0.00 0.00 0.00 50 1016.4
20260504183417 77 248 2.0 5.0 0.00 0.00 0.00 51 1016.5
20260504182916 77 315 1.0 2.0 0.00 0.00 0.00 52 1016.6
20260504182417 76 225 2.0 4.0 0.00 0.00 0.00 51 1016.5
20260504181916 76 248 2.0 6.0 0.00 0.00 0.00 51 1016.7
20260504181416 76 270 1.0 2.0 0.00 0.00 0.00 53 1016.8
20260504180917 75 248 3.0 9.0 0.00 0.00 0.00 51 1016.8
20260504180416 75 270 2.0 5.0 0.00 0.00 0.00 51 1016.8
20260504175917 75 180 2.0 3.0 0.00 0.00 0.00 57 1016.8
20260504175417 75 203 3.0 6.0 0.00 0.00 0.00 50 1016.8
20260504174917 75 293 3.0 4.0 0.00 0.00 0.00 51 1016.9
20260504174417 75 248 2.0 4.0 0.00 0.00 0.00 53 1016.9
20260504173916 75 293 2.0 4.0 0.00 0.00 0.00 53 1017.2
20260504173417 75 180 1.0 3.0 0.00 0.00 0.00 56 1017.2
20260504172917 74 180 3.0 5.0 0.00 0.00 0.00 51 1017.3
20260504172416 74 225 3.0 5.0 0.00 0.00 0.00 52 1017.4
20260504171916 74 0 2.0 4.0 0.00 0.00 0.00 51 1017.4
20260504171417 74 158 2.0 3.0 0.00 0.00 0.00 53 1017.5
20260504170917 74 203 3.0 7.0 0.00 0.00 0.00 53 1017.5
20260504170416 73 203 1.0 3.0 0.00 0.00 0.00 52 1017.7
20260504160416 70 293 2.0 4.0 0.00 0.00 0.00 52 1018.6